HST
1 20580U 90037B   24098.67123243  .00004493  00000-0  21407-3 0  9992
2 20580  28.4681  97.2027 0002331 347.0325  13.0207 15.16626558666316
ISS (ZARYA)
1 25544U 98067A   24099.42084265  .00012682  00000-0  22975-3 0  9992
2 25544  51.6405 301.3116 0004747  49.1798  23.2907 15.50005864447729
CXO
1 25867U 99040B   24101.75328704  .00000852  00000-0  00000-0 0  9999
2 25867  39.7258 160.4923 8952489 291.5305   0.0080  0.37813252 14306